STARLINK-1493 (45759 NORAD) Tracking and Keplerian Element Data

This shows tracking and keplerian element data for the satellite.

Feedback or suggestion? Click here.




ElementValue
Catalog45759
NameSTARLINK-1493
Epoch Orbit428
Epoch Day185.50001157
Epoch Year2020
RAAN197.6219
Inclination52.998
Eccentricity0.0001254
Argument of Perigee104.6895
Mean Anonmoly236.5841
Mean Motion15.62990971
Decay Rate-0.00349889
L11 45759U 20038AF 20185.50001157 -.00349889 00000-0 -39450-2 0 9994
L22 45759 52.9980 197.6219 0001254 104.6895 236.5841 15.62990971 4287

Live tracking and technical data element details for STARLINK-1493 (NORAD 45759). STARLINK-1493 can be tracked NOW for your location showing map with azimuth and elevation plus other details from your city location.

Track the satellite on the map from your city or location and see movement details for azimuth, elevation, latitude, longitude, range, height, and movement on the map or in text.







IsCatalogInMostPopularTable: catalog: 45759, numindb: 4
Update: records affected: 1



GetName: 45759 STARLINK-1493

Hit Count: updated at: Sat, 04 Jul 2020 02:16:03 GMT